Find KUIPER-00519

NORAD ID: 68890 Int'l Des: 2026-095AC Owner: KUIP Country: US Constellation: amazon-leo operational
LEOCIRCULAR

当前视图

正在加载3D地球...

About KUIPER-00519

KUIPER-00519 (NORAD 68890) is a amazon-leo constellation satellite launched Apr 28, 2026 by KUIP of US. It operates in LEO, CIRCULAR orbit with a mass of 490.00 kg.

关于 KUIPER-00519

正在加载描述...

即将过境

Passes for default location (London). Set your location on the main map for personalized predictions.

高度历史

Loading altitude history...

两行轨道根数

1 68890U 26095AC 26168.91668981 -.00014114 00000-0 -49432-3 0 9992
2 68890 51.8858 238.9188 0000468 2.1286 234.8317 15.28222619 5285
Epoch: Jun 17, 2026 • Age: 12 hours

当前状态

高度 487.0 km
速度 7.63 km/s
星下点 51.02°N, 103.6°W
发射日期 Apr 28, 2026
运行时间 0.1 years
类型 internet

技术详情

分类 Payload
质量 490.00 kg
干质量 490.00 kg
总质量 490.00 kg
长度 1.80 m
直径 0.70 m
跨度 5.00 m
形状 Box + 2 pan
制造商 KUIP
平台类型 Kuiper
阶段状态 In Orbit
所有者/国家 KUIP/US

Most Searched